Regional Weather Roundup
Issued by NWS

Home | Current Version | Previous Version | Text Only | Print | Product List | Glossary Off
Versions: 1 2 3 4 5 6 7 8 9 10 11 12 13 14 15 16 17 18 19 20 21 22 23 24 25 26 27 28 29 30 31 32 33 34 35 36 37 38 39 40 41 42 43 44 45 46 47 48 49 50

000
ASUS43 KMKX 280911
RWRWI

WISCONSIN REGIONAL WEATHER ROUNDUP
NATIONAL WEATHER SERVICE MILWAUKEE/SULLIVAN WI
400 AM CDT SAT MAY 28 2016

NOTE: "FAIR" INDICATES FEW OR NO CLOUDS BELOW 12,000 FEET WITH NO
SIGNIFICANT WEATHER AND/OR OBSTRUCTIONS TO VISIBILITY.

WIZ001-002-006>008-014>016-023>028-281000-
NORTHWEST WISCONSIN

CITY           SKY/WX    TMP DP  RH WIND       PRES   REMARKS
SUPERIOR ARPT  FOG       44  44 100 NE7       29.78F VSB 1
ASHLAND        CLOUDY    46  44  93 CALM      29.77S
HAYWARD        FOG       57  56  96 SW3       29.77R VSB 1/4
SIREN          CLOUDY    55  55  97 CALM      29.78R
CUMBERLAND     CLOUDY    55  55 100 CALM      29.77R FOG
RICE LAKE      FOG       58  57  96 CALM      29.78R VSB 3/4
CHETEK         FOG       60  60 100 CALM      29.77R VSB 1/4
LADYSMITH      CLOUDY    65  64  96 SW3       29.78R FOG
EAU CLAIRE     FOG       62  62 100 CALM      29.75S VSB 1/2
MENOMONIE      FOG       63  63  99 CALM      29.76R VSB 1/4
NEW RICHMOND   CLOUDY    62  62 100 CALM      29.77R FOG
OSCEOLA        FOG       59  59 100 NW3       29.79R VSB 1
$$

WIZ003>005-009-010-017-018-281000-
NORTH CENTRAL WISCONSIN

CITY           SKY/WX    TMP DP  RH WIND       PRES   REMARKS
MANITOWISH WTR NOT AVBL
ARBOR VITAE    CLOUDY    65  64  94 S3        29.79R
WOODRUFF       CLOUDY    65  64  94 S3        29.79R
RHINELANDER    CLOUDY    66  64  93 SE3       29.80R
EAGLE RIVER      N/A     64  64 100 SE3       29.80R FOG
LAND O LAKES   RAIN      64  64  98 SE3       29.81R
PHILLIPS       CLOUDY    64  64 100 CALM      29.77R
TOMAHAWK       CLOUDY    64  63  95 CALM      29.79S FOG
MEDFORD        CLOUDY    65  65 100 S3        29.78R FOG
MERRILL        CLOUDY   N/A N/A N/A S5        29.80R FOG
$$

WIZ029-030-035-036-043>047-281000-
CENTRAL WISCONSIN

CITY           SKY/WX    TMP DP  RH WIND       PRES   REMARKS
WAUSAU         CLOUDY    69  66  90 S7        29.77R
MOSINEE        CLOUDY    64  64 100 SE6       29.80R FOG
MARSHFIELD     CLOUDY    68  65  90 S5        29.77S FOG
STEVENS POINT  CLOUDY    66  65  99 S5        29.79S FOG
WAUPACA        CLOUDY    69  69 100 SE3       29.79S FOG
WAUTOMA        CLOUDY    68  67  96 SE8       29.79S
WISC RAPIDS    CLOUDY    68  65  90 SE6       29.78R
CAMP DOUGLAS   CLOUDY    68 N/A N/A E6        29.74F
$$

WIZ011>013-019>022-031-037>040-048>050-281000-
NORTHEAST WISCONSIN

CITY           SKY/WX    TMP DP  RH WIND       PRES   REMARKS
ANTIGO         CLOUDY    65  65 100 S9        29.81S FOG
SHAWANO        CLOUDY    67  65  94 CALM      29.80R FOG
OCONTO         CLOUDY    62  62 100 SE5       29.80R
STURGEON BAY   NOT AVBL
GREEN BAY      CLOUDY    68  65  90 S8        29.80R
MANITOWOC      CLOUDY    60  59  96 S5        29.84R FOG
APPLETON       CLOUDY    68  66  94 S12       29.80R
CLINTONVILLE   CLOUDY    64  64 100 S6        29.79S FOG
OSHKOSH        LGT RAIN  68  65  90 S12G21    29.80R
$$

WIZ032>034-041-042-053>061-281000-
SOUTHWEST WISCONSIN

CITY           SKY/WX    TMP DP  RH WIND       PRES   REMARKS
LA CROSSE      CLOUDY    67  65  93 CALM      29.72F
SPARTA         LGT RAIN  63  63 100 CALM      29.75F
VIROQUA        CLOUDY    66  66 100 CALM      29.74F
BOSCOBEL       HVY RAIN  68  66  93 CALM      29.72F FOG
PRAIRIE DU CHI RAIN      67  65  94 CALM      29.71F
PLATTEVILLE    CLOUDY    68  67  96 SE15      29.74S
$$

WIZ056-057-062-063-064-067-068-281000-
SOUTH CENTRAL WISCONSIN

CITY           SKY/WX    TMP DP  RH WIND       PRES   REMARKS
REEDSBURG      DRIZZLE   68  67  98 S9        29.75F
BARABOO/DELLS  LGT RAIN  67  65  90 S10       29.77S
LONE ROCK      CLOUDY    70  67  90 SE7       29.74F
MINERAL POINT  CLOUDY    68  68 100 SE12      29.75F
MADISON        CLOUDY    68  66  93 S12       29.78S
MIDDLETON      CLOUDY    69  67  92 S7        29.79S
WATERTOWN      CLOUDY    67  67 100 SE6       29.81F
MONROE         CLOUDY    68  64  88 S9        29.78S
JANESVILLE     CLOUDY    70  68  94 SE12      29.80R
$$

WIZ051-052-058>065-066-070>072-281000-
SOUTHEAST WISCONSIN

CITY           SKY/WX    TMP DP  RH WIND       PRES   REMARKS
MILWAUKEE      CLOUDY    70  64  81 S9        29.84S
WAUKESHA       CLOUDY    66  63  88 S7        29.84F
MILWAUKEE/TIMM CLOUDY    68  61  77 S5        29.84S
RACINE         CLOUDY    63  59  87 S10       29.87R
BURLINGTON     CLOUDY    68  63  84 S8        29.83S HAZE
KENOSHA        CLOUDY    69  64  84 S10       29.85S
FOND DU LAC    LGT RAIN  68  65  90 S13       29.81S
SHEBOYGAN      CLOUDY    64  62  93 S7        29.83S
WEST BEND      CLOUDY    68  63  83 S6        29.83F
JUNEAU         CLOUDY    66  64  94 SE9       29.83S
$$

LSZ147-162-281000-
LAKE SUPERIOR

STATION/POSITION TIME  TEMP    WIND        PRES    WAVE
                       AIR SEA DIR/SP/G            HT/PER
                 (UTC) (F)     (DEG/KT/KT) (MB)    (FT/S)
W MID LAKE BUOY  0850   40 38   60/ 12/ 14 1008.5S   3/ 5
DEVILS ISLAND    0900   43      70/  6/  7 1008.8R
SAXON HARBOR     0800   48     320/  3/  4 1007.5F
$$

LMZ867-665-643>646-281000-
LAKE MICHIGAN

STATION/POSITION TIME  TEMP    WIND        PRES    WAVE
                       AIR SEA DIR/SP/G            HT/PER
                 (UTC) (F)     (DEG/KT/KT) (MB)    (FT/S)
CHAMBERS ISLAND  0800   60     120/  4/  7 1009.5
N MID LAKE BUOY  0850   52 46  170/  8/ 10 1010.4R   1
NORTHPORT PIER   0800   58     150/  9/ 14 1009.8F
SISTER BAY       0850   58     150/ 15/ 20   N/A
ALGOMA LAKESHORE 0817             CALM       N/A
KEWAUNEE LAKESHO 0800   53     170/  7/  9 1009.3R
SHEBOYGAN LAKESH 0900   59     180/ 11/ 13 1010.5R
PORT WASHINGTON  0840   57     190/  6/  9 1011.2S
S MID LAKE BUOY  0850   55 50  140/ 10/ 12 1011.6R   1/ 4
KENOSHA   LAKESH 0900   57     170/ 11/ 12 1010.8S
$$

TC  - TEMPERATURE IN CELSIUS
VSB - VISIBILITY IN STATUTE MILES
WCI - WIND CHILL INDEX
HX  - HEAT INDEX





USA.gov is the U.S. government's official web portal to all federal, state and local government web resources and services.